User: anonymous
Location: Hartman Creek State Park
(44.3257°N, 89.2134°W)
Time: 02:41:29
(UTC-05:00)
Language:

Terra - Orbit

View from above orbital plane
View from above orbital plane
View from above satellite
View from above satellite

Ground track
Ground track

The orbit data is extracted from the following two-line orbital elements,

1 25994U 99068A   14112.82289811  .00000869  00000-0  20289-3 0  1673
2 25994 098.2132 188.3141 0001455 108.7237 251.4094 14.57136776763003
Epoch (UTC): 22 April 2014 19:44:58
Eccentricity: 0.0001455
inclination: 98.2132°
perigee height: 701 km
apogee height: 703 km
right ascension of ascending node: 188.3141°
argument of perigee: 108.7237°
revolutions per day: 14.57136776
mean anomaly at epoch: 251.4094°
orbit number at epoch: 76300

The dashed part of the orbit path shows where the satellite is in the earth's shadow,  

DLR